Temp
15 12 12 15 16 16 17 16 17 17 18 18 17 16 17 19 20 19 22 23 23 24 24 23 24 24 25 25 25 24 24 24 23 21 19 19 19 19 18 18 17 16 16 16
13 12 14 16 15 15 15 15 15 16 17 16 16 16 17 17 19 22 23 23 24 23 22 23 22 23 25 25 25 24 24 23 23 21 20 18 19 18 18 17 16 16 16 15
14 15 15 15 15 14 14 15 16 16 15 16 16 17 18 18 19 22 23 22 22 23 21 19 20 21 23 23 24 24 23 23 22 21 19 18 18 18 18 17 17 16 15 14
13 15 15 14 14 14 14 16 16 15 16 14 17 15 17 18 18 18 21 22 21 20 18 19 20 21 22 22 22 22 22 21 21 20 19 18 18 19 19 19 18 17 15 15
13 14 14 15 15 16 14 16 15 15 15 15 16 15 18 18 18 19 17 18 19 18 18 19 20 20 21 21 21 21 20 19 19 18 17 17 17 17 18 18 17 16 15 15
14 16 15 15 17 16 17 17 17 14 14 14 15 15 19 18 18 19 16 17 18 17 18 18 19 19 19 19 19 19 19 18 18 17 16 16 16 16 17 17 16 16 15 15
15 14 15 17 16 16 16 15 14 13 13 14 17 15 19 19 19 17 15 17 17 17 17 18 18 18 18 19 19 19 18 18 17 16 16 17 16 15 15 15 15 15 14 14
13 14 15 15 16 16 16 14 12 14 13 16 16 15 17 18 17 18 18 18 17 17 17 17 17 18 18 18 19 19 19 18 17 16 16 16 16 14 14 14 14 14 13 13
13 14 15 16 18 17 15 14 16 14 14 13 14 15 17 17 16 15 15 16 17 17 18 19 18 18 19 18 18 18 18 18 18 17 16 15 14 14 14 14 14 13 12 12
15 14 15 16 17 17 17 16 13 12 13 14 14 14 16 16 15 14 13 14 16 17 17 17 18 18 18 18 18 18 18 18 17 16 16 15 14 13 12 12 12 12 11 11
15 14 15 15 14 14 14 15 14 14 12 12 13 15 15 16 14 14 13 16 16 16 17 17 17 17 17 16 17 17 17 17 16 15 14 14 14 13 12 11 11 11 11 11
15 13 13 15 15 16 16 15 16 13 12 13 12 16 13 14 14 14 14 16 16 16 16 17 18 18 17 17 16 16 15 15 15 14 14 14 14 13 13 12 11 10 10 10
13 11 12 13 14 14 15 14 16 16 11 14 12 14 13 13 13 14 14 14 15 16 16 17 17 17 15 14 14 14 13 13 12 12 11 12 12 12 12 11 9 8 9 9
14 11 11 14 13 12 13 15 15 15 13 14 14 13 13 12 11 10 11 11 12 13 12 12 12 12 11 10 11 11 10 10 10 10 10 10 10 10 10 10 10 7 8 7
11 12 13 13 13 12 12 13 15 14 15 13 13 15 15 11 10 9 9 8 9 8 9 9 9 8 9 9 9 9 10 10 10 9 9 8 8 8 8 9 9 8 7 7
8 9 11 12 13 12 11 11 13 15 15 12 12 12 10 9 9 8 8 7 7 7 7 8 8 8 8 8 8 8 8 8 9 9 9 9 9 8 7 7 7 7 6 6
7 7 7 10 12 9 8 9 11 11 12 13 10 11 8 8 8 7 7 7 7 7 7 8 8 8 8 8 8 8 8 8 7 7 6 7 7 8 8 7 6 6 6 6
6 6 5 8 7 9 11 11 12 11 11 9 9 10 9 8 7 8 8 8 7 7 7 7 7 7 8 8 7 7 7 7 7 7 6 6 5 5 6 6 6 6 6 6
8 6 6 7 7 7 7 9 10 10 8 8 8 8 7 6 6 5 7 7 7 7 7 7 7 7 6 6 6 6 6 6 6 6 6 6 5 5 5 5 6 5 5 5
7 7 7 6 8 8 8 9 11 10 8 7 8 7 5 5 4 4 6 7 7 7 7 7 7 6 6 6 6 6 6 5 5 5 5 5 5 5 5 5 5 5 5 5
6 6 7 7 7 6 8 8 11 8 8 8 8 7 5 5 7 7 6 6 6 6 6 6 5 5 5 5 5 5 5 5 5 5 5 4 4 4 4 5 5 3 3 4
7 6 6 6 6 7 7 8 9 8 6 7 7 6 5 7 7 7 6 6 6 5 5 5 5 5 5 5 4 4 4 4 4 4 4 4 4 4 4 4 4 4 3 3
6 7 7 7 6 6 8 7 9 9 6 6 6 7 7 7 6 6 6 5 5 5 5 4 4 4 4 4 3 3 3 3 3 3 4 4 4 4 4 4 4 3 3 3
6 6 5 6 6 6 7 7 8 7 7 7 7 7 7 7 6 6 6 5 5 4 4 4 4 4 4 3 2 2 2 2 2 2 2 2 3 3 4 4 4 4 3 3
4 5 4 5 5 5 5 7 7 7 7 7 7 7 7 6 6 6 5 5 4 4 4 4 3 2 2 2 2 1 1 -0 -0 0 -0 1 1 2 2 2 3 3 3 3
3 3 4 4 5 4 5 7 7 7 7 7 6 6 6 6 6 5 4 4 4 3 2 2 2 1 1 1 1 0 0 -1 -1 -1 -1 -0 -0 0 1 1 2 2 3 2
Height
1502 1509 1507 1491 1497 1499 1501 1503 1501 1495 1487 1492 1490 1491 1480 1475 1473 1468 1464 1463 1462 1460 1458 1457 1456 1456 1460 1462 1464 1467 1470 1473 1475 1479 1483 1488 1489 1493 1497 1500 1503 1506 1509 1511
1504 1500 1493 1494 1496 1499 1501 1504 1502 1491 1486 1492 1486 1483 1474 1471 1464 1460 1457 1456 1455 1453 1451 1448 1447 1449 1451 1455 1458 1463 1466 1470 1472 1475 1479 1484 1486 1490 1493 1496 1500 1502 1504 1507
1491 1488 1482 1490 1496 1500 1500 1502 1497 1496 1491 1485 1485 1477 1468 1461 1456 1452 1451 1450 1449 1448 1446 1446 1448 1449 1451 1454 1458 1463 1464 1467 1470 1473 1476 1480 1484 1488 1491 1492 1495 1497 1500 1503
1486 1483 1486 1489 1493 1495 1499 1487 1488 1494 1498 1506 1483 1492 1467 1458 1455 1451 1446 1445 1444 1444 1446 1447 1449 1449 1452 1455 1458 1462 1464 1466 1468 1470 1474 1478 1480 1482 1485 1489 1492 1493 1495 1497
1475 1475 1481 1483 1480 1483 1487 1479 1487 1488 1491 1493 1491 1499 1459 1453 1454 1447 1441 1441 1443 1446 1447 1448 1449 1450 1452 1454 1458 1461 1462 1465 1468 1470 1473 1476 1479 1481 1484 1487 1488 1489 1492 1493
1469 1467 1470 1469 1470 1474 1474 1479 1482 1487 1493 1499 1491 1491 1439 1452 1445 1440 1439 1440 1444 1447 1447 1448 1449 1450 1453 1455 1458 1460 1462 1465 1467 1470 1472 1476 1479 1480 1482 1484 1484 1486 1487 1487
1468 1464 1465 1464 1469 1469 1474 1484 1502 1504 1507 1491 1467 1476 1445 1440 1436 1434 1435 1437 1442 1447 1447 1448 1449 1451 1453 1455 1458 1460 1462 1464 1467 1470 1472 1475 1477 1478 1479 1480 1481 1482 1484 1484
1468 1468 1458 1453 1456 1464 1466 1473 1490 1499 1500 1473 1464 1466 1445 1430 1428 1428 1429 1433 1440 1444 1446 1447 1449 1450 1454 1457 1458 1459 1461 1462 1465 1467 1469 1471 1472 1474 1475 1476 1477 1478 1479 1480
1456 1454 1436 1437 1442 1454 1463 1470 1460 1474 1472 1483 1467 1449 1432 1429 1428 1428 1429 1436 1438 1441 1443 1444 1448 1450 1454 1456 1457 1458 1460 1461 1464 1466 1468 1470 1471 1472 1472 1473 1474 1474 1476 1477
1436 1448 1433 1432 1440 1445 1447 1449 1475 1479 1484 1481 1458 1456 1439 1431 1431 1431 1430 1431 1436 1440 1441 1443 1446 1449 1453 1454 1455 1456 1458 1459 1461 1463 1465 1466 1467 1468 1469 1470 1470 1469 1470 1470
1434 1439 1439 1433 1435 1440 1451 1450 1451 1452 1463 1472 1469 1442 1419 1419 1422 1425 1427 1430 1434 1438 1439 1440 1441 1444 1448 1451 1453 1454 1456 1458 1459 1461 1461 1461 1461 1462 1461 1461 1463 1465 1463 1462
1423 1438 1439 1433 1424 1424 1428 1431 1436 1450 1456 1449 1455 1416 1416 1415 1418 1422 1426 1430 1433 1435 1436 1437 1439 1442 1446 1448 1451 1454 1455 1455 1456 1458 1459 1459 1459 1460 1461 1460 1460 1460 1459 1460
1422 1437 1443 1434 1430 1425 1426 1426 1423 1425 1441 1435 1452 1427 1415 1414 1421 1424 1425 1430 1431 1432 1433 1434 1436 1438 1442 1445 1448 1449 1451 1453 1454 1457 1458 1458 1458 1458 1458 1459 1458 1457 1457 1457
1408 1417 1422 1415 1420 1424 1424 1419 1418 1422 1436 1423 1422 1428 1423 1422 1423 1425 1427 1428 1429 1430 1432 1434 1435 1438 1441 1444 1446 1448 1449 1450 1453 1455 1457 1457 1458 1456 1455 1454 1453 1454 1452 1452
1408 1409 1409 1404 1411 1415 1414 1411 1409 1414 1402 1420 1413 1417 1417 1424 1425 1427 1429 1431 1432 1434 1435 1437 1439 1440 1441 1442 1445 1447 1448 1449 1450 1452 1454 1455 1455 1456 1456 1452 1451 1448 1447 1448
1410 1410 1406 1403 1404 1410 1412 1405 1399 1397 1400 1412 1413 1416 1415 1423 1426 1427 1430 1432 1433 1435 1437 1440 1443 1440 1439 1441 1443 1446 1447 1448 1448 1449 1449 1449 1449 1450 1449 1449 1448 1445 1445 1443
1410 1413 1416 1398 1404 1416 1416 1391 1396 1400 1399 1403 1416 1412 1415 1420 1424 1425 1428 1429 1432 1436 1438 1440 1438 1439 1439 1439 1441 1443 1444 1444 1444 1445 1445 1444 1443 1440 1440 1440 1441 1440 1440 1438
1403 1414 1420 1407 1416 1402 1379 1378 1383 1388 1397 1402 1409 1409 1409 1412 1420 1422 1426 1426 1429 1435 1438 1439 1440 1439 1436 1438 1440 1441 1441 1440 1439 1440 1440 1438 1438 1437 1435 1434 1432 1433 1434 1432
1391 1404 1408 1408 1404 1398 1393 1381 1382 1384 1392 1396 1401 1405 1409 1416 1421 1421 1424 1425 1430 1431 1432 1434 1440 1435 1435 1435 1434 1435 1435 1435 1435 1434 1434 1432 1432 1432 1430 1428 1428 1426 1426 1426
1386 1388 1393 1403 1394 1387 1373 1372 1375 1385 1395 1391 1393 1397 1405 1416 1424 1413 1419 1426 1429 1427 1426 1430 1431 1433 1433 1434 1432 1430 1430 1430 1430 1429 1426 1426 1425 1424 1424 1423 1421 1420 1419 1416
1380 1386 1383 1389 1388 1384 1369 1369 1375 1390 1375 1369 1378 1387 1394 1397 1395 1399 1411 1416 1419 1422 1425 1428 1430 1430 1430 1430 1428 1426 1426 1426 1425 1423 1422 1422 1421 1418 1416 1415 1415 1414 1412 1410
1362 1377 1379 1383 1384 1383 1366 1369 1370 1364 1362 1368 1377 1385 1392 1398 1399 1400 1409 1415 1418 1422 1424 1425 1425 1425 1425 1425 1424 1422 1420 1420 1419 1418 1416 1415 1414 1413 1410 1408 1406 1405 1404 1403
1360 1352 1359 1363 1361 1357 1359 1358 1358 1360 1363 1372 1376 1384 1390 1394 1396 1402 1409 1413 1416 1418 1419 1420 1419 1418 1418 1417 1416 1414 1413 1413 1411 1409 1407 1406 1404 1403 1401 1401 1400 1397 1397 1395
1353 1351 1358 1360 1354 1353 1354 1358 1360 1364 1366 1371 1377 1382 1387 1390 1395 1401 1405 1408 1410 1411 1412 1412 1411 1410 1411 1411 1410 1409 1407 1406 1404 1401 1397 1394 1393 1392 1391 1392 1390 1389 1388 1386
1348 1350 1352 1353 1350 1352 1355 1357 1361 1369 1371 1374 1377 1380 1384 1389 1394 1398 1401 1403 1404 1405 1404 1405 1406 1406 1404 1403 1401 1401 1401 1399 1394 1389 1386 1385 1383 1381 1380 1381 1380 1379 1378 1378
1343 1344 1350 1349 1342 1346 1353 1358 1364 1368 1371 1373 1375 1380 1383 1386 1389 1392 1395 1397 1398 1400 1401 1401 1400 1399 1397 1395 1395 1394 1391 1388 1383 1380 1375 1374 1372 1370 1369 1368 1367 1369 1368 1368
Wind_Speed
6 4 10 22 14 4 0 4 5 4 5 4 8 7 14 18 17 24 27 23 22 27 30 32 27 27 26 21 26 29 29 29 28 33 35 32 30 29 28 29 28 28 28 30
2 13 15 2 8 9 10 12 11 12 11 5 13 11 10 8 14 24 27 25 25 32 32 23 18 16 19 19 19 22 24 25 25 29 34 34 32 29 27 26 27 28 28 28
11 6 16 14 7 7 12 12 10 11 7 5 7 12 11 10 11 23 25 24 27 26 18 8 8 10 12 14 14 15 16 21 26 28 34 37 33 28 28 28 28 28 31 31
11 9 3 8 7 11 13 12 15 7 1 5 2 6 5 7 10 6 24 27 20 15 16 14 13 13 12 11 11 14 16 22 25 27 31 35 34 32 30 26 24 28 29 30
9 7 11 13 11 13 6 6 9 10 7 1 2 5 5 6 6 11 6 11 18 18 16 15 12 11 10 11 11 15 15 18 20 24 27 30 34 34 31 26 24 26 28 30
6 4 7 8 9 15 3 3 2 3 2 8 7 8 13 8 6 5 1 10 21 17 16 13 11 8 6 7 9 10 12 14 15 19 24 27 31 33 30 30 28 27 25 28
7 15 3 4 3 4 6 6 2 2 2 8 12 10 18 8 14 9 7 19 22 17 14 12 11 9 8 6 5 6 7 9 10 11 15 19 25 28 30 32 33 28 27 31
13 10 21 10 16 6 10 8 6 7 5 5 5 7 6 8 13 14 13 27 20 18 15 12 10 10 11 8 6 3 1 5 9 13 17 20 24 25 27 28 29 29 27 32
8 8 4 8 25 17 6 10 7 4 3 2 5 6 6 2 3 7 19 22 22 19 15 10 8 9 8 7 7 6 5 1 5 11 16 20 22 23 25 27 27 28 26 27
4 4 5 6 4 14 16 8 2 3 5 10 5 5 9 3 6 7 9 20 22 18 15 12 10 9 9 4 3 3 3 5 6 6 9 12 17 21 21 22 23 23 25 26
4 3 3 6 8 12 5 13 6 5 6 5 4 9 7 13 10 12 9 19 18 18 16 11 5 5 4 5 6 5 5 7 8 9 11 12 11 14 19 21 21 22 23 25
19 1 10 13 5 2 10 11 19 7 5 7 2 17 3 7 8 11 12 18 16 12 11 7 5 8 10 11 10 8 7 9 9 11 12 13 13 15 17 18 20 20 21 23
11 6 7 5 3 6 13 8 16 19 3 18 8 8 4 8 7 9 19 16 13 10 7 6 7 10 13 16 16 13 10 8 8 12 13 13 13 14 16 19 19 19 20 21
21 6 10 16 6 3 6 19 16 18 9 11 18 4 4 5 8 7 11 14 13 11 10 9 8 9 11 12 14 11 9 8 9 12 15 17 18 17 17 19 19 18 19 19
4 13 15 18 6 5 4 8 20 21 28 15 11 15 15 8 7 8 16 16 16 16 16 15 15 14 13 10 6 4 7 10 12 15 17 20 22 24 24 23 24 20 20 21
1 3 11 20 15 9 9 6 11 23 21 6 9 10 2 8 12 12 13 16 17 17 15 13 11 11 10 7 6 5 5 7 10 14 14 14 18 23 29 28 28 25 24 24
4 4 5 15 11 6 8 22 13 5 3 9 11 4 9 5 6 11 18 18 18 15 12 8 7 6 6 7 7 7 8 10 11 13 15 18 18 20 24 32 30 30 28 28
7 6 2 3 5 11 9 9 16 15 10 1 3 3 9 6 13 15 17 18 17 15 10 6 4 5 7 8 10 12 13 14 15 16 16 15 18 22 24 26 27 33 28 31
14 8 3 4 6 4 5 6 14 15 15 11 8 4 8 13 10 6 15 17 17 13 7 2 4 7 11 15 17 18 19 18 19 21 23 21 21 25 25 26 28 27 37 34
9 11 9 4 5 10 7 10 17 8 8 16 19 17 16 21 6 6 26 20 14 7 4 4 6 11 15 17 17 19 20 20 21 19 20 23 26 27 29 30 29 31 37 37
6 6 13 6 4 6 5 5 21 10 7 24 32 29 32 17 7 17 29 20 12 9 6 5 7 10 11 12 13 17 19 22 22 23 24 26 27 27 27 28 30 35 34 38
10 9 5 4 5 10 9 7 11 4 4 22 26 29 28 15 18 27 22 17 14 9 8 8 9 11 12 13 15 19 22 23 25 27 30 31 30 30 29 26 30 31 31 38
6 7 7 9 6 2 20 2 10 16 23 19 28 30 29 22 19 21 18 14 11 9 7 7 11 16 19 21 22 25 27 27 29 30 32 32 31 31 32 31 27 29 30 33
4 3 4 3 5 5 15 12 22 23 28 27 27 26 24 23 20 17 14 10 9 7 8 12 17 21 25 23 21 20 23 25 28 32 34 34 35 35 33 33 31 33 33 35
3 7 6 2 3 8 9 21 26 24 25 26 25 25 23 20 16 11 9 9 8 9 12 15 18 22 25 26 27 27 26 24 27 31 32 32 31 33 31 34 37 36 37 33
4 5 5 4 9 6 15 25 24 24 25 25 24 20 16 13 11 11 11 9 10 11 14 17 22 26 26 25 28 28 27 26 27 31 32 31 32 33 35 33 34 38 37 34
Wind_Direction
192 145 206 217 205 242 77 236 250 241 249 334 257 263 264 261 267 271 284 286 286 294 300 302 291 258 257 258 250 235 236 231 233 229 227 226 226 224 228 233 238 241 241 240
117 228 229 96 184 219 243 261 259 282 267 187 280 257 272 237 248 261 277 285 288 296 299 283 273 250 230 233 225 225 224 230 232 230 228 227 227 225 231 235 237 238 240 241
203 205 219 204 210 202 235 235 254 253 327 265 270 281 262 256 257 266 269 277 286 284 257 189 176 176 172 180 187 208 219 228 230 231 226 226 227 229 235 240 244 244 243 243
227 233 158 189 222 195 240 212 234 257 232 247 137 288 202 228 248 273 274 288 271 222 173 148 134 135 146 161 178 197 210 225 231 234 231 229 230 230 238 245 255 251 250 251
219 188 205 216 208 193 232 171 195 223 235 115 288 301 240 168 246 264 293 260 199 179 162 152 142 145 147 159 177 197 210 224 232 236 236 234 234 239 247 255 253 257 258 257
207 207 173 206 220 203 128 227 276 75 109 250 199 206 259 224 220 255 212 210 185 179 166 157 151 145 150 153 174 186 205 218 226 234 240 240 240 245 254 254 254 262 266 267
212 239 258 183 162 146 157 132 254 302 193 246 199 221 250 286 280 237 185 187 187 184 169 160 151 137 131 133 152 180 206 226 239 250 248 249 250 253 256 257 261 273 267 267
198 245 200 184 213 179 199 171 167 202 211 266 201 236 243 226 282 261 209 177 176 179 172 163 149 133 128 118 106 107 181 221 225 226 237 243 247 251 257 263 268 279 262 272
172 244 180 193 212 183 196 208 203 295 133 313 216 283 294 285 242 153 143 168 176 178 173 167 165 158 141 112 90 100 113 83 261 255 253 251 254 259 264 267 271 275 276 275
210 287 218 187 135 224 216 150 91 207 217 241 239 249 233 225 204 176 156 176 178 179 180 179 171 159 181 176 127 51 360 355 338 315 299 284 269 258 262 267 269 270 274 271
169 146 221 133 197 164 176 228 216 183 180 189 259 255 206 201 200 181 177 179 177 186 193 189 183 207 228 259 284 293 301 331 343 339 338 326 307 281 268 263 265 268 269 266
206 131 257 234 236 166 218 208 203 202 217 237 215 254 324 214 164 157 164 172 147 126 120 122 185 238 248 250 258 267 284 297 311 316 321 321 314 305 293 281 272 270 266 264
162 212 252 279 268 268 232 213 214 221 107 223 191 258 5 115 112 147 142 134 135 135 149 160 183 207 223 228 231 235 246 267 294 308 312 312 310 311 308 297 287 273 268 262
169 163 202 229 201 208 212 224 216 211 224 223 223 164 233 130 132 112 116 131 129 130 128 139 154 174 198 216 228 237 247 261 277 288 295 299 304 305 303 295 290 278 262 251
176 223 224 246 222 197 236 232 217 214 224 202 199 192 187 178 171 150 136 131 125 119 120 121 123 125 127 127 138 204 250 262 273 276 280 290 291 289 291 292 286 278 264 244
356 261 225 247 236 211 241 245 235 221 227 208 158 198 157 130 146 139 144 139 130 124 118 117 117 110 98 89 71 35 2 337 319 306 307 300 305 292 283 286 282 274 264 237
148 134 178 244 227 193 265 220 198 184 163 183 203 207 157 153 157 152 154 149 145 138 133 120 98 86 73 42 15 350 331 317 310 305 301 294 287 280 284 279 276 266 255 238
156 140 204 251 125 217 269 184 189 185 196 226 294 218 193 161 162 151 165 154 147 154 148 122 87 39 26 5 344 332 323 315 311 310 303 303 300 291 284 281 279 266 248 241
182 160 180 192 221 344 278 237 189 176 219 215 211 154 118 136 137 170 176 168 167 167 156 141 330 348 347 343 336 327 321 312 302 294 294 296 297 296 290 285 278 277 249 247
167 173 193 166 208 209 216 200 177 128 256 200 198 183 158 151 181 213 179 184 179 176 193 270 308 316 320 324 322 317 314 311 310 315 318 311 305 293 294 284 285 280 263 265
171 185 202 193 227 280 232 154 142 167 230 184 193 181 170 182 206 192 176 181 181 188 202 262 287 298 306 305 299 293 293 293 301 305 308 309 304 307 298 281 278 274 270 272
167 166 189 175 200 252 177 141 187 197 68 161 163 167 166 166 142 159 169 179 178 197 225 247 269 286 294 294 289 288 288 294 293 290 284 285 289 292 293 287 272 275 273 269
200 193 177 185 201 189 181 179 206 159 151 157 157 167 167 158 156 158 166 181 201 228 240 268 292 302 302 299 299 296 294 291 286 284 282 281 280 279 282 282 278 272 276 280
231 145 166 124 207 187 181 170 165 172 161 160 161 163 168 163 164 172 187 205 218 232 272 299 313 313 309 305 304 305 305 299 290 284 282 282 281 277 274 268 274 275 273 274
187 153 159 247 90 87 148 161 157 158 156 159 163 166 168 170 177 193 210 225 242 269 292 301 302 305 305 304 303 305 309 304 298 292 289 287 285 281 277 268 272 271 278 277
188 171 176 217 177 138 175 164 164 161 161 164 163 164 174 187 198 202 207 226 256 276 288 293 298 301 304 303 303 308 308 306 303 302 300 294 286 286 281 277 270 268 273 274